Buger, Spain

8:13 PM CET on December 14, 2017 (GMT +0100)
Buger

Weather History for 08306 - May, 2013

Change the Weather History Date:

Sunday, May 5, 2013

  Actual Average Record
Temperature  
Mean Temperature 57 °F -  
Max Temperature 69 °F 74 °F - ()
Min Temperature 45 °F 54 °F - ()
Degree Days  
Heating Degree Days 8    
Growing Degree Days 7 (Base 50)    
Moisture  
Dew Point 53 °F    
Average Humidity 78    
Maximum Humidity 100    
Minimum Humidity 49    
Precipitation  
Precipitation 0.00 in 0.04 in - ()
Sea Level Pressure  
Sea Level Pressure 30.12 in    
Wind  
Wind Speed 4 mph ()    
Max Wind Speed 16 mph    
Max Gust Speed -    
Visibility 7.5 miles    
Events      
T = Trace of Precipitation, MM = Missing Value Source: Averaged Metar Reports

Daily Weather History Graph

Daily Weather History Graph

Search for Another Location

Airport or City:

Trip Planner

Search our weather history database for the weather conditions in past years. The results will help you decide how hot, cold, wet, or windy it might be!

Date:

Astronomy

May. 05, 2013 Rise Set
Actual Time 6:45 AM CEST 8:46 PM CEST
Civil Twilight 6:15 AM CEST 9:16 PM CEST
Nautical Twilight 5:39 AM CEST 9:52 PM CEST
Astronomical Twilight 5:01 AM CEST 10:31 PM CEST
Moon 4:06 AM CEST (5/5) 4:31 PM CEST (5/5)
Length of Visible Light 15h 00m
Length of Day
14h 01m
Waning Crescent, 20% of the Moon is Illuminated
May 5
Waning Crescent
May 10
New
May 18
First Quarter
May 25
Full
May 31
Last Quarter

Hourly Weather History & Observations

Time (CEST) Temp. Dew Point Humidity Pressure Visibility Wind Dir Wind Speed Gust Speed Precip Events Conditions
12:00 AM 55.4 °F 51.8 °F 88% 30.15 in - Calm Calm - N/A   Clear
12:30 AM 53.6 °F 50.0 °F 88% 30.15 in - Calm Calm - N/A   Clear
1:00 AM 53.6 °F 50.0 °F 88% 30.15 in - Calm Calm - N/A   Clear
1:30 AM 51.8 °F 50.0 °F 94% 30.15 in - Calm Calm - N/A   Clear
2:00 AM 50 °F 47 °F 85% 30.16 in 12 mi ENE 2.3 mph - -  
2:00 AM 50.0 °F 48.2 °F 94% 30.15 in - NE 3.5 mph - N/A   Clear
2:30 AM 50.0 °F 48.2 °F 94% 30.12 in - SSE 1.2 mph - N/A   Clear
3:00 AM 48.2 °F 46.4 °F 93% 30.12 in - Calm Calm - N/A   Clear
3:30 AM 48.2 °F 46.4 °F 93% 30.12 in - Calm Calm - N/A   Clear
4:00 AM 50.0 °F 48.2 °F 94% 30.12 in - Calm Calm - N/A   Clear
5:00 AM 46.4 °F 46.4 °F 100% 30.09 in - Calm Calm - N/A   Clear
5:30 AM 46.4 °F 44.6 °F 93% 30.09 in - Calm Calm - N/A   Clear
6:00 AM 46.4 °F 44.6 °F 93% 30.09 in - Calm Calm - N/A   Clear
6:30 AM 46.4 °F 44.6 °F 93% 30.09 in - Calm Calm - N/A   Clear
7:00 AM 46.4 °F 44.6 °F 93% 30.09 in - Calm Calm - N/A   Clear
7:30 AM 46.4 °F 46.4 °F 100% 30.09 in - Calm Calm - N/A   Clear
8:00 AM 50 °F 46 °F 82% 30.12 in 16 mi ENE 2.3 mph - -   Scattered Clouds
8:00 AM 50.0 °F 48.2 °F 94% 30.12 in - Calm Calm - N/A   Clear
8:30 AM 53.6 °F 51.8 °F 94% 30.12 in - Calm Calm - N/A   Clear
9:00 AM 59.0 °F 53.6 °F 82% 30.12 in - Calm Calm - N/A   Clear
9:30 AM 62.6 °F 50.0 °F 63% 30.12 in 6.2 mi Variable 1.2 mph - N/A   Partly Cloudy
10:00 AM 62.6 °F 50.0 °F 63% 30.12 in 6.2 mi SSW 4.6 mph - N/A   Partly Cloudy
10:30 AM 66.2 °F 53.6 °F 64% 30.12 in - SSW 5.8 mph - N/A   Clear
11:00 AM 66.2 °F 53.6 °F 64% 30.12 in - SW 8.1 mph - N/A   Clear
11:30 AM 66.2 °F 53.6 °F 64% 30.12 in - SW 9.2 mph - N/A   Clear
12:00 PM 66.2 °F 53.6 °F 64% 30.12 in 6.2 mi SSW 10.4 mph - N/A   Partly Cloudy
12:30 PM 68.0 °F 53.6 °F 60% 30.12 in 6.2 mi SSW 11.5 mph - N/A   Partly Cloudy
1:00 PM 68.0 °F 53.6 °F 60% 30.12 in 6.2 mi SW 12.7 mph - N/A   Partly Cloudy
1:16 PM 68.0 °F 55.4 °F 64% 30.12 in 6.2 mi SW 12.7 mph - N/A   Partly Cloudy
1:30 PM 68.0 °F 51.8 °F 56% 30.12 in 6.2 mi SW 12.7 mph - N/A   Partly Cloudy
2:00 PM 69 °F 54 °F 49% 30.14 in 19 mi SW 15.0 mph - -   Scattered Clouds
2:00 PM 68.0 °F 53.6 °F 60% 30.12 in 6.2 mi SW 13.8 mph - N/A   Partly Cloudy
2:30 PM 68.0 °F 57.2 °F 68% 30.12 in 6.2 mi SW 15.0 mph - N/A   Partly Cloudy
3:00 PM 68.0 °F 57.2 °F 68% 30.12 in 6.2 mi SW 16.1 mph - N/A   Partly Cloudy
3:30 PM 68.0 °F 57.2 °F 68% 30.12 in 6.2 mi SW 15.0 mph - N/A   Partly Cloudy
4:00 PM 68.0 °F 57.2 °F 68% 30.12 in 6.2 mi SW 16.1 mph - N/A   Partly Cloudy
4:30 PM 68.0 °F 57.2 °F 68% 30.09 in 6.2 mi SW 16.1 mph - N/A   Partly Cloudy
5:00 PM 68.0 °F 55.4 °F 64% 30.09 in 6.2 mi SW 15.0 mph - N/A   Partly Cloudy
5:30 PM 66.2 °F 57.2 °F 73% 30.09 in 6.2 mi SW 13.8 mph - N/A   Partly Cloudy
6:00 PM 68.0 °F 55.4 °F 64% 30.09 in 6.2 mi SW 15.0 mph - N/A   Partly Cloudy
6:30 PM 66.2 °F 57.2 °F 73% 30.09 in 6.2 mi SW 15.0 mph - N/A   Partly Cloudy
7:00 PM 66.2 °F 57.2 °F 73% 30.09 in 6.2 mi SW 13.8 mph - N/A   Partly Cloudy
7:30 PM 64.4 °F 57.2 °F 77% 30.09 in 6.2 mi SW 11.5 mph - N/A   Partly Cloudy
8:00 PM 65 °F 56 °F 64% 30.12 in 19 mi SW 15.0 mph - -   Scattered Clouds
8:00 PM 64.4 °F 57.2 °F 77% 30.09 in 6.2 mi SW 11.5 mph - N/A   Partly Cloudy
8:30 PM 62.6 °F 57.2 °F 82% 30.12 in 6.2 mi SW 8.1 mph - N/A   Partly Cloudy
9:00 PM 62.6 °F 57.2 °F 82% 30.12 in 6.2 mi SSW 6.9 mph - N/A   Partly Cloudy
9:30 PM 62.6 °F 57.2 °F 82% 30.12 in 6.2 mi SW 5.8 mph - N/A   Partly Cloudy
10:00 PM 60.8 °F 57.2 °F 88% 30.12 in 6.2 mi WSW 6.9 mph - N/A   Partly Cloudy
10:30 PM 60.8 °F 57.2 °F 88% 30.15 in 6.2 mi WSW 5.8 mph - N/A   Partly Cloudy
11:00 PM 59.0 °F 57.2 °F 94% 30.15 in 6.2 mi WSW 4.6 mph - N/A   Partly Cloudy
11:30 PM 59.0 °F 57.2 °F 94% 30.15 in 6.2 mi WSW 2.3 mph - N/A   Partly Cloudy